Location: Rehoboth Beach
(38.7438°N, 75.1341°W)
Time: 11:21:51
(UTC-04:00)

Hubble Space Telescope - Visible Passes

Search period start: 28 July 2015 00:00
Search period end: 07 August 2015 00:00
Orbit: 542 x 545 km, 28.5° (Epoch: 27 July)

Date Brightness Start Highest point End Pass type
(mag) Time Alt. Az. Time Alt. Az. Time Alt. Az.
28 Jul 2.7 04:35:49 14° S 04:35:49 14° S 04:37:27 10° SSE visible
04 Aug 2.9 20:39:17 10° S 20:40:45 12° SSE 20:42:17 10° SE visible
04 Aug 3.3 22:18:25 10° SW 22:18:36 11° SW 22:18:36 11° SW visible
05 Aug 3.0 22:09:23 10° SW 22:10:24 14° SW 22:10:24 14° SW visible
06 Aug 2.7 22:00:25 10° SW 22:02:06 17° SSW 22:02:06 17° SSW visible
